星链-35479(STARLINK-35479)

导读

STARLINK-35479是美国星链(Starlink)星座的一颗卫星,于2025年11月6日发射入轨,隶属于太空探索技术公司(SpaceX)打造的低轨卫星互联网星座网络。星链旨在为全球偏远地区、信号薄弱区域提供高速宽带互联网服务,该卫星承担着组网扩容、覆盖完善等星座运营职责,进一步拓展星链星座覆盖与服务能力。

Basic Information
目录编号:
66326
目录名称:
STARLINK-35479
国际标识:
2025-253H
轨道中心:
EARTH
卫星名称:
星链-35479
卫星全名:
星链-35479(STARLINK-35479)
卫星状态:
在轨 (已飞行302 天)
发射日期:
2025-11-06 UTC
国别 :
美国 (US)
星等 :
--
Orbit Information
数据来源 国际轨道数据
星历时间: 2026-09-03T19:22:34+0800
20小时前
查看轨道信息
半长轴: 6861.251km
偏心率: 0.0000518
轨道倾角: 42.995°
近地点辐角 82.508°
升交点赤经 288.531°
平近点角 277.583°
近地点: 482.758km
远地点: 483.47km
周期: 94.268分钟
每日圈数: 15.275585
Detailed Information
固有亮度:
5
最大亮度:
2.5
卫星平台:
Starlink V1.0
覆盖范围:
全球
运营商:
太空探索技术公司
运营商所在国:
美国
制造商(研发单位):
太空探索技术公司
制造商所在国:
美国
使用方式:
暂无
Satellite Introduction
Starlink 计划是 SpaceX 推出的全球卫星互联网项目,通过发射低轨道卫星,为全球尤其是偏远地区提供高速、低延迟的互联网服务。自 2019 年起,Starlink 已部署数千颗卫星,旨在缩小全球数字鸿沟,推动互联网普及。该项目还为军事、航空等行业提供通信支持,带来广泛经济效益。
2D Orbit Map
3D Orbit Map
Orbit Altitude Analysis Chart
Orbit Inclination Analysis Chart
Orbit Comprehensive Analysis Chart
View Comprehensive Chart
Conjunction Data List
Event ID Objects TCA Miss Dist (km) Collision Risk Probability Collision Risk Index (CRI) Action
CDM_260905-064906-162806-632621
2026-09-05T
06:49:26+0000
0.368 km
远距离
2.172916E-4 高风险 0.82
CDM_260904-182005-653206-632621
2026-09-04T
18:20:38+0000
0.403 km
远距离
9.182806E-5 中风险 0.74
CDM_260904-221605-653206-632621
2026-09-04T
22:16:01+0000
0.736 km
远距离
1.566729E-5 中风险 0.59
CDM_260905-061505-823906-632621
2026-09-05T
06:15:32+0000
1.198 km
极远距离
7.870789E-6 低风险 0.53
CDM_260905-074905-823906-632621
2026-09-05T
07:49:42+0000
1.232 km
极远距离
7.137822E-6 低风险 0.52
CDM_260905-082306-162806-632621
2026-09-05T
08:23:35+0000
2.286 km
极远距离
1.103142E-6 低风险 0.36
CDM_260905-051506-162806-632621
2026-09-05T
05:15:17+0000
2.580 km
极远距离
8.944232E-7 极低风险 0.34
CDM_260904-195405-653206-632621
2026-09-04T
19:54:47+0000
1.999 km
极远距离
7.263183E-7 极低风险 0.32
CDM_260904-204105-653206-632621
2026-09-04T
20:41:52+0000
2.151 km
极远距离
6.2622E-7 极低风险 0.31
CDM_260904-164605-653206-632621
2026-09-04T
16:46:29+0000
2.720 km
极远距离
4.348696E-7 极低风险 0.28